Date String (YYYY-MM-DD hh:mm:ss) UTC,Instrument flags,Ambient pressure (hPa),Sample flow (lpm),Bypass flow (lpm),Sample temperature (°C),Ambient temperature (°C),ASC tube jacket temperature (°C),LED temperature (°C),Box temperature (°C),Sample RH (%),Span deviation,Mass concentration (μg/m³),Mass concentration (μg/m³),Mass concentration (μg/m³)
DateTimeUTC,F1_M11,P_M11,Q1_M11,Q2_M11,T1_M11,T2_M11,T3_M11,T4_M11,T5_M11,U1_M11,ZSPAN_M11,X0_M11,X2_M11,X1_M11
2023-01-03 07:00:00,,0817.0,5.00,0.00,22.6,21.0,00.0,31.5,24.3,13.7,0000.0,0001.39,0000.96,0000.84
2023-01-03 07:01:00,,0817.0,5.01,0.00,22.6,21.0,00.0,31.5,24.2,13.6,0000.0,0001.51,0001.01,0000.89
2023-01-03 07:02:00,,0817.0,4.99,0.00,22.6,21.0,00.0,31.5,24.2,13.7,0000.0,0001.58,0001.08,0000.95
2023-01-03 07:03:00,,0817.0,5.00,0.00,22.5,21.0,00.0,31.4,24.2,13.7,0000.0,0001.73,0001.17,0001.02
2023-01-03 07:04:00,,0817.0,5.00,0.00,22.6,21.7,00.0,31.4,24.4,13.7,0000.0,0001.84,0001.27,0001.11
2023-01-03 07:05:00,,0817.0,5.00,0.00,22.7,22.6,00.0,31.4,24.7,13.6,0000.0,0001.95,0001.35,0001.18
2023-01-03 07:06:00,,0817.0,4.99,0.00,22.8,23.2,00.0,31.4,24.8,13.5,0000.0,0002.09,0001.45,0001.25
2023-01-03 07:07:00,,0817.0,4.99,0.00,22.8,22.8,00.0,31.5,24.8,13.5,0000.0,0002.05,0001.50,0001.29
2023-01-03 07:08:00,,0817.0,5.01,0.00,22.8,22.4,00.0,31.5,24.7,13.5,0000.0,0002.40,0001.51,0001.29
2023-01-03 07:09:00,,0817.0,5.00,0.00,22.8,22.0,00.0,31.5,24.6,13.5,0000.0,0002.43,0001.50,0001.29
2023-01-03 07:10:00,,0817.0,5.00,0.00,22.8,21.8,00.0,31.6,24.6,13.5,0000.0,0002.43,0001.51,0001.32
2023-01-03 07:11:00,,0817.0,5.00,0.00,22.8,21.6,00.0,31.6,24.5,13.5,0000.0,0002.41,0001.55,0001.35
2023-01-03 07:12:00,,0817.0,5.00,0.00,22.7,21.4,00.0,31.6,24.5,13.5,0000.0,0002.40,0001.60,0001.39
2023-01-03 07:13:00,,0817.0,5.00,0.00,22.7,21.3,00.0,31.6,24.4,13.6,0000.0,0002.47,0001.64,0001.43
2023-01-03 07:14:00,,0817.0,5.01,0.00,22.7,21.2,00.0,31.6,24.4,13.6,0000.0,0002.67,0001.71,0001.48
2023-01-03 07:15:00,,0817.0,5.00,0.00,22.7,21.2,00.0,31.5,24.4,13.6,0000.0,0002.72,0001.74,0001.50
2023-01-03 07:16:00,,0817.0,4.99,0.00,22.6,21.1,00.0,31.5,24.3,13.6,0000.0,0002.73,0001.78,0001.54
2023-01-03 07:17:00,,0817.0,5.00,0.00,22.6,21.0,00.0,31.5,24.3,13.7,0000.0,0002.65,0001.76,0001.56
2023-01-03 07:18:00,,0817.0,5.00,0.00,22.6,21.0,00.0,31.5,24.2,13.7,0000.0,0002.62,0001.76,0001.57
2023-01-03 07:19:00,,0817.0,4.99,0.00,22.6,20.9,00.0,31.5,24.2,13.7,0000.0,0002.38,0001.82,0001.62
2023-01-03 07:20:00,,0816.9,5.00,0.00,22.5,20.9,00.0,31.5,24.2,13.7,0000.0,0002.54,0001.92,0001.68
2023-01-03 07:21:00,,0817.0,5.00,0.00,22.5,20.8,00.0,31.5,24.1,13.8,0000.0,0002.69,0001.99,0001.72
2023-01-03 07:22:00,,0817.0,5.00,0.00,22.5,20.8,00.0,31.4,24.1,13.9,0000.0,0002.77,0002.06,0001.79
2023-01-03 07:23:00,,0817.0,4.99,0.00,22.4,20.7,00.0,31.4,24.1,13.9,0000.0,0002.89,0002.14,0001.86
2023-01-03 07:24:00,,0817.0,4.99,0.00,22.4,20.7,00.0,31.4,24.0,13.9,0000.0,0003.13,0002.25,0001.94
2023-01-03 07:25:00,,0817.0,5.00,0.00,22.4,21.2,00.0,31.4,24.1,13.9,0000.0,0003.03,0002.28,0001.98
2023-01-03 07:26:00,,0817.0,5.01,0.00,22.5,22.1,00.0,31.3,24.4,13.9,0000.0,0003.02,0002.32,0002.03
2023-01-03 07:27:00,,0817.0,5.00,0.00,22.6,22.9,00.0,31.3,24.6,13.8,0000.0,0003.03,0002.35,0002.05
2023-01-03 07:28:00,,0817.0,4.99,0.00,22.7,22.7,00.0,31.4,24.7,13.7,0000.0,0003.04,0002.37,0002.07
2023-01-03 07:29:00,,0817.0,5.00,0.00,22.7,22.3,00.0,31.4,24.6,13.7,0000.0,0003.07,0002.39,0002.09
2023-01-03 07:30:00,,0817.0,5.00,0.00,22.7,21.9,00.0,31.4,24.5,13.7,0000.0,0003.03,0002.37,0002.09
2023-01-03 07:31:00,,0816.9,5.00,0.00,22.6,21.6,00.0,31.4,24.4,13.7,0000.0,0002.84,0002.32,0002.08
2023-01-03 07:32:00,,0816.9,5.00,0.00,22.6,21.5,00.0,31.4,24.3,13.7,0000.0,0002.68,0002.27,0002.06
2023-01-03 07:33:00,,0817.2,5.01,0.00,22.6,21.3,00.0,31.4,24.3,13.7,0000.0,0002.60,0002.22,0002.03
2023-01-03 07:34:00,,0816.9,5.03,0.00,22.6,21.2,00.0,31.4,24.2,13.7,0000.0,0002.48,0002.17,0002.01
2023-01-03 07:35:00,,0817.2,4.99,0.00,22.5,21.1,00.0,31.4,24.2,13.7,0000.0,0002.29,0002.12,0001.98
2023-01-03 07:36:00,,0817.0,5.00,0.00,22.5,21.1,00.0,31.4,24.2,13.7,0000.0,0002.17,0002.05,0001.93
2023-01-03 07:37:00,,0817.2,5.00,0.00,22.5,21.0,00.0,31.4,24.2,13.8,0000.0,0002.15,0002.01,0001.91
2023-01-03 07:38:00,,0816.9,5.00,0.00,22.5,21.0,00.0,31.4,24.1,13.7,0000.0,0002.09,0001.96,0001.87
2023-01-03 07:39:00,,0817.0,5.00,0.00,22.4,20.9,00.0,31.4,24.1,13.7,0000.0,0002.03,0001.92,0001.85
2023-01-03 07:40:00,,0816.8,5.00,0.00,22.4,20.8,00.0,31.4,24.1,13.7,0000.0,0001.99,0001.89,0001.83
2023-01-03 07:41:00,,0816.9,5.00,0.00,22.4,20.8,00.0,31.4,24.1,13.7,0000.0,0001.97,0001.87,0001.81
2023-01-03 07:42:00,,0816.9,5.02,0.00,22.4,20.8,00.0,31.3,24.0,13.8,0000.0,0001.98,0001.86,0001.79
2023-01-03 07:43:00,,0816.9,4.99,0.00,22.4,20.8,00.0,31.3,24.0,13.8,0000.0,0001.96,0001.84,0001.76
2023-01-03 07:44:00,,0816.9,5.00,0.00,22.3,20.8,00.0,31.3,24.0,13.7,0000.0,0001.95,0001.82,0001.73
2023-01-03 07:45:00,,0816.8,4.99,0.00,22.4,21.5,00.0,31.3,24.2,13.7,0000.0,0001.97,0001.79,0001.68
2023-01-03 07:46:00,,0816.8,5.00,0.00,22.5,22.5,00.0,31.2,24.5,13.6,0000.0,0001.88,0001.71,0001.62
2023-01-03 07:47:00,,0816.8,4.99,0.00,22.6,23.1,00.0,31.3,24.7,13.5,0000.0,0001.84,0001.67,0001.59
2023-01-03 07:48:00,,0816.9,4.98,0.00,22.7,22.8,00.0,31.3,24.7,13.4,0000.0,0001.80,0001.63,0001.55
2023-01-03 07:49:00,,0816.9,5.00,0.00,22.7,22.4,00.0,31.4,24.6,13.4,0000.0,0001.81,0001.62,0001.53
2023-01-03 07:50:00,,0816.9,4.99,0.00,22.7,22.0,00.0,31.4,24.5,13.4,0000.0,0001.78,0001.58,0001.50
2023-01-03 07:51:00,,0816.9,5.01,0.00,22.7,21.7,00.0,31.4,24.4,13.4,0000.0,0001.77,0001.58,0001.49
2023-01-03 07:52:00,,0816.9,5.01,0.00,22.6,21.5,00.0,31.4,24.4,13.4,0000.0,0001.90,0001.57,0001.48
2023-01-03 07:53:00,,0816.9,4.99,0.00,22.6,21.4,00.0,31.4,24.3,13.4,0000.0,0001.95,0001.56,0001.45
2023-01-03 07:54:00,,0816.9,5.00,0.00,22.6,21.3,00.0,31.4,24.3,13.4,0000.0,0001.94,0001.52,0001.42
2023-01-03 07:55:00,,0816.8,5.00,0.00,22.6,21.2,00.0,31.4,24.3,13.4,0000.0,0001.91,0001.49,0001.39
2023-01-03 07:56:00,,0816.8,5.01,0.00,22.6,21.1,00.0,31.4,24.2,13.4,0000.0,0001.85,0001.47,0001.39
2023-01-03 07:57:00,,0816.8,5.00,0.00,22.5,21.0,00.0,31.4,24.2,13.5,0000.0,0001.96,0001.52,0001.42
2023-01-03 07:58:00,,0816.9,4.99,0.00,22.5,21.0,00.0,31.4,24.1,13.5,0000.0,0001.98,0001.54,0001.43
2023-01-03 07:59:00,,0816.8,5.00,0.00,22.5,20.9,00.0,31.4,24.1,13.5,0000.0,0001.97,0001.54,0001.44
